Year,Month,Day,Hour,Minute,Value (Times are PST for windgust in km/hr)
2012,12,03,00,00,6.40
2012,12,03,00,01,6.40
2012,12,03,00,02,4.80
2012,12,03,00,03,3.20
2012,12,03,00,04,8.10
2012,12,03,00,05,1.60
2012,12,03,00,06,4.80
2012,12,03,00,07,4.80
2012,12,03,00,08,1.60
2012,12,03,00,10,4.80
2012,12,03,00,11,3.20
2012,12,03,00,12,3.20
2012,12,03,00,13,6.40
2012,12,03,00,14,1.60
2012,12,03,00,15,3.20
2012,12,03,00,17,4.80
2012,12,03,00,18,1.60
2012,12,03,00,19,9.60
2012,12,03,00,20,4.80
2012,12,03,00,21,3.20
2012,12,03,00,22,4.80
2012,12,03,00,23,9.60
2012,12,03,00,24,8.10
2012,12,03,00,25,6.40
2012,12,03,00,26,6.40
2012,12,03,00,27,3.20
2012,12,03,00,28,3.20
2012,12,03,00,32,1.60
2012,12,03,00,33,3.20
2012,12,03,00,34,1.60
2012,12,03,00,36,4.80
2012,12,03,00,37,4.80
2012,12,03,00,38,4.80
2012,12,03,00,39,4.80
2012,12,03,00,40,4.80
2012,12,03,00,41,4.80
2012,12,03,00,42,3.20
2012,12,03,00,43,4.80
2012,12,03,00,44,4.80
2012,12,03,00,45,4.80
2012,12,03,00,46,1.60
2012,12,03,00,48,1.60
2012,12,03,00,49,3.20
2012,12,03,00,50,4.80
2012,12,03,00,51,4.80
2012,12,03,00,52,8.10
2012,12,03,00,53,6.40
2012,12,03,00,54,8.10
2012,12,03,00,55,4.80
2012,12,03,00,56,6.40
2012,12,03,00,57,6.40
2012,12,03,00,58,4.80
2012,12,03,00,59,1.60
2012,12,03,01,00,3.20
2012,12,03,01,01,3.20
2012,12,03,01,02,4.80
2012,12,03,01,03,4.80
2012,12,03,01,04,1.60
2012,12,03,01,06,1.60
2012,12,03,01,07,6.40
2012,12,03,01,08,3.20
2012,12,03,01,09,4.80
2012,12,03,01,10,6.40
2012,12,03,01,11,6.40
2012,12,03,01,12,4.80
2012,12,03,01,13,8.10
2012,12,03,01,14,8.10
2012,12,03,01,15,8.10
2012,12,03,01,16,9.60
2012,12,03,01,17,8.10
2012,12,03,01,18,8.10
2012,12,03,01,19,8.10
2012,12,03,01,20,11.30
2012,12,03,01,21,8.10
2012,12,03,01,22,9.60
2012,12,03,01,23,12.90
2012,12,03,01,24,16.10
2012,12,03,01,25,16.10
2012,12,03,01,26,14.50
2012,12,03,01,27,9.60
2012,12,03,01,28,11.30
2012,12,03,01,29,16.10
2012,12,03,01,30,12.90
2012,12,03,01,31,14.50
2012,12,03,01,32,16.10
2012,12,03,01,33,19.30
2012,12,03,01,34,11.30
2012,12,03,01,35,16.10
2012,12,03,01,36,11.30
2012,12,03,01,37,11.30
2012,12,03,01,38,11.30
2012,12,03,01,39,11.30
2012,12,03,01,40,11.30
2012,12,03,01,41,11.30
2012,12,03,01,42,11.30
2012,12,03,01,43,11.30
2012,12,03,01,44,11.30
2012,12,03,01,45,14.50
2012,12,03,01,46,11.30
2012,12,03,01,47,11.30
2012,12,03,01,48,8.10
2012,12,03,01,49,6.40
2012,12,03,01,50,6.40
2012,12,03,01,51,1.60
2012,12,03,01,52,1.60
2012,12,03,01,53,4.80
2012,12,03,01,54,6.40
2012,12,03,01,55,3.20
2012,12,03,01,56,1.60
2012,12,03,01,58,3.20
2012,12,03,01,59,4.80
2012,12,03,02,00,3.20
2012,12,03,02,01,1.60
2012,12,03,02,02,3.20
2012,12,03,02,07,3.20
2012,12,03,02,08,4.80
2012,12,03,02,09,9.60
2012,12,03,02,10,8.10
2012,12,03,02,11,4.80
2012,12,03,02,12,3.20
2012,12,03,02,13,3.20
2012,12,03,02,14,3.20
2012,12,03,02,16,4.80
2012,12,03,02,17,6.40
2012,12,03,02,18,8.10
2012,12,03,02,19,6.40
2012,12,03,02,20,3.20
2012,12,03,02,24,1.60
2012,12,03,02,29,3.20
2012,12,03,02,30,6.40
2012,12,03,02,31,8.10
2012,12,03,02,32,11.30
2012,12,03,02,33,6.40
2012,12,03,02,34,8.10
2012,12,03,02,35,8.10
2012,12,03,02,36,11.30
2012,12,03,02,37,9.60
2012,12,03,02,38,9.60
2012,12,03,02,39,16.10
2012,12,03,02,40,17.70
2012,12,03,02,41,20.90
2012,12,03,02,42,17.70
2012,12,03,02,43,16.10
2012,12,03,02,44,14.50
2012,12,03,02,45,16.10
2012,12,03,02,46,16.10
2012,12,03,02,47,6.40
2012,12,03,02,48,9.60
2012,12,03,02,49,9.60
2012,12,03,02,50,9.60
2012,12,03,02,51,9.60
2012,12,03,02,52,17.70
2012,12,03,02,53,11.30
2012,12,03,02,54,16.10
2012,12,03,02,55,8.10
2012,12,03,02,56,25.70
2012,12,03,02,57,17.70
2012,12,03,02,58,19.30
2012,12,03,02,59,16.10
2012,12,03,03,00,24.20
2012,12,03,03,01,35.40
2012,12,03,03,02,17.70
2012,12,03,03,03,25.70
2012,12,03,03,04,25.70
2012,12,03,03,05,11.30
2012,12,03,03,06,17.70
2012,12,03,03,07,6.40
2012,12,03,03,08,6.40
2012,12,03,03,09,8.10
2012,12,03,03,10,6.40
2012,12,03,03,11,6.40
2012,12,03,03,12,4.80
2012,12,03,03,13,6.40
2012,12,03,03,14,8.10
2012,12,03,03,15,1.60
2012,12,03,03,16,6.40
2012,12,03,03,17,3.20
2012,12,03,03,18,4.80
2012,12,03,03,19,4.80
2012,12,03,03,20,4.80
2012,12,03,03,21,1.60
2012,12,03,03,22,1.60
2012,12,03,03,23,6.40
2012,12,03,03,24,8.10
2012,12,03,03,25,6.40
2012,12,03,03,26,4.80
2012,12,03,03,27,4.80
2012,12,03,03,28,3.20
2012,12,03,03,29,1.60
2012,12,03,03,30,6.40
2012,12,03,03,31,3.20
2012,12,03,03,32,16.10
2012,12,03,03,33,9.60
2012,12,03,03,34,4.80
2012,12,03,03,35,14.50
2012,12,03,03,36,11.30
2012,12,03,03,37,3.20
2012,12,03,03,38,6.40
2012,12,03,03,39,8.10
2012,12,03,03,40,6.40
2012,12,03,03,41,11.30
2012,12,03,03,42,8.10
2012,12,03,03,43,17.70
2012,12,03,03,44,16.10
2012,12,03,03,45,6.40
2012,12,03,03,46,8.10
2012,12,03,03,47,8.10
2012,12,03,03,48,11.30
2012,12,03,03,49,4.80
2012,12,03,03,50,4.80
2012,12,03,03,51,4.80
2012,12,03,03,52,8.10
2012,12,03,03,53,6.40
2012,12,03,03,54,9.60
2012,12,03,03,55,9.60
2012,12,03,03,56,9.60
2012,12,03,03,57,4.80
2012,12,03,03,58,8.10
2012,12,03,03,59,8.10
2012,12,03,04,00,6.40
2012,12,03,04,01,14.50
2012,12,03,04,02,11.30
2012,12,03,04,03,16.10
2012,12,03,04,04,8.10
2012,12,03,04,05,19.30
2012,12,03,04,06,17.70
2012,12,03,04,07,8.10
2012,12,03,04,08,16.10
2012,12,03,04,09,22.50
2012,12,03,04,10,16.10
2012,12,03,04,11,9.60
2012,12,03,04,12,16.10
2012,12,03,04,13,17.70
2012,12,03,04,14,6.40
2012,12,03,04,15,9.60
2012,12,03,04,16,8.10
2012,12,03,04,17,4.80
2012,12,03,04,18,8.10
2012,12,03,04,19,9.60
2012,12,03,04,20,9.60
2012,12,03,04,21,6.40
2012,12,03,04,22,9.60
2012,12,03,04,23,8.10
2012,12,03,04,24,6.40
2012,12,03,04,25,9.60
2012,12,03,04,26,3.20
2012,12,03,04,27,16.10
2012,12,03,04,28,9.60
2012,12,03,04,29,8.10
2012,12,03,04,30,8.10
2012,12,03,04,31,11.30
2012,12,03,04,32,14.50
2012,12,03,04,33,9.60
2012,12,03,04,34,8.10
2012,12,03,04,35,3.20
2012,12,03,04,36,4.80
2012,12,03,04,37,9.60
2012,12,03,04,38,16.10
2012,12,03,04,39,14.50
2012,12,03,04,40,8.10
2012,12,03,04,41,9.60
2012,12,03,04,42,8.10
2012,12,03,04,43,4.80
2012,12,03,04,44,9.60
2012,12,03,04,45,8.10
2012,12,03,04,46,8.10
2012,12,03,04,47,9.60
2012,12,03,04,48,6.40
2012,12,03,04,49,8.10
2012,12,03,04,50,6.40
2012,12,03,04,51,4.80
2012,12,03,04,52,6.40
2012,12,03,04,53,9.60
2012,12,03,04,54,9.60
2012,12,03,04,55,9.60
2012,12,03,04,56,4.80
2012,12,03,04,57,4.80
2012,12,03,04,58,6.40
2012,12,03,04,59,8.10
2012,12,03,05,00,4.80
2012,12,03,05,01,4.80
2012,12,03,05,02,3.20
2012,12,03,05,03,4.80
2012,12,03,05,04,9.60
2012,12,03,05,05,6.40
2012,12,03,05,06,4.80
2012,12,03,05,07,12.90
2012,12,03,05,08,11.30
2012,12,03,05,09,8.10
2012,12,03,05,10,6.40
2012,12,03,05,11,8.10
2012,12,03,05,12,6.40
2012,12,03,05,13,9.60
2012,12,03,05,14,6.40
2012,12,03,05,15,8.10
2012,12,03,05,16,6.40
2012,12,03,05,17,1.60
2012,12,03,05,18,8.10
2012,12,03,05,19,6.40
2012,12,03,05,20,9.60
2012,12,03,05,21,3.20
2012,12,03,05,22,6.40
2012,12,03,05,23,8.10
2012,12,03,05,24,6.40
2012,12,03,05,25,9.60
2012,12,03,05,26,8.10
2012,12,03,05,27,9.60
2012,12,03,05,28,6.40
2012,12,03,05,29,6.40
2012,12,03,05,30,8.10
2012,12,03,05,31,9.60
2012,12,03,05,32,9.60
2012,12,03,05,33,14.50
2012,12,03,05,34,14.50
2012,12,03,05,35,4.80
2012,12,03,05,36,8.10
2012,12,03,05,37,6.40
2012,12,03,05,38,8.10
2012,12,03,05,39,4.80
2012,12,03,05,40,8.10
2012,12,03,05,41,9.60
2012,12,03,05,42,12.90
2012,12,03,05,43,16.10
2012,12,03,05,44,9.60
2012,12,03,05,45,6.40
2012,12,03,05,46,11.30
2012,12,03,05,47,9.60
2012,12,03,05,48,6.40
2012,12,03,05,49,9.60
2012,12,03,05,50,6.40
2012,12,03,05,51,4.80
2012,12,03,05,52,6.40
2012,12,03,05,53,8.10
2012,12,03,05,54,8.10
2012,12,03,05,55,8.10
2012,12,03,05,56,9.60
2012,12,03,05,57,6.40
2012,12,03,05,58,6.40
2012,12,03,05,59,8.10
2012,12,03,06,00,9.60
2012,12,03,06,01,6.40
2012,12,03,06,02,11.30
2012,12,03,06,03,11.30
2012,12,03,06,04,12.90
2012,12,03,06,05,6.40
2012,12,03,06,06,14.50
2012,12,03,06,07,6.40
2012,12,03,06,08,14.50
2012,12,03,06,09,17.70
2012,12,03,06,10,17.70
2012,12,03,06,11,6.40
2012,12,03,06,12,9.60
2012,12,03,06,13,8.10
2012,12,03,06,15,11.30
2012,12,03,06,16,11.30
2012,12,03,06,17,8.10
2012,12,03,06,18,17.70
2012,12,03,06,19,4.80
2012,12,03,06,20,6.40
2012,12,03,06,21,11.30
2012,12,03,06,22,6.40
2012,12,03,06,23,8.10
2012,12,03,06,24,17.70
2012,12,03,06,25,17.70
2012,12,03,06,26,11.30
2012,12,03,06,27,8.10
2012,12,03,06,28,6.40
2012,12,03,06,29,4.80
2012,12,03,06,30,8.10
2012,12,03,06,31,9.60
2012,12,03,06,32,6.40
2012,12,03,06,33,11.30
2012,12,03,06,34,6.40
2012,12,03,06,35,9.60
2012,12,03,06,36,11.30
2012,12,03,06,37,6.40
2012,12,03,06,38,8.10
2012,12,03,06,39,8.10
2012,12,03,06,40,6.40
2012,12,03,06,41,6.40
2012,12,03,06,42,3.20
2012,12,03,06,43,8.10
2012,12,03,06,44,9.60
2012,12,03,06,45,6.40
2012,12,03,06,46,8.10
2012,12,03,06,47,8.10
2012,12,03,06,48,6.40
2012,12,03,06,49,8.10
2012,12,03,06,50,6.40
2012,12,03,06,51,3.20
2012,12,03,06,52,3.20
2012,12,03,06,53,8.10
2012,12,03,06,54,3.20
2012,12,03,06,55,3.20
2012,12,03,06,56,6.40
2012,12,03,06,57,8.10
2012,12,03,06,58,8.10
2012,12,03,06,59,6.40
2012,12,03,07,00,4.80
2012,12,03,07,01,4.80
2012,12,03,07,02,4.80
2012,12,03,07,03,4.80
2012,12,03,07,04,4.80
2012,12,03,07,05,6.40
2012,12,03,07,06,11.30
2012,12,03,07,07,9.60
2012,12,03,07,08,8.10
2012,12,03,07,09,8.10
2012,12,03,07,10,9.60
2012,12,03,07,11,8.10
2012,12,03,07,12,9.60
2012,12,03,07,13,14.50
2012,12,03,07,14,11.30
2012,12,03,07,15,11.30
2012,12,03,07,16,11.30
2012,12,03,07,17,8.10
2012,12,03,07,18,12.90
2012,12,03,07,19,11.30
2012,12,03,07,20,14.50
2012,12,03,07,21,6.40
2012,12,03,07,22,4.80
2012,12,03,07,23,4.80
2012,12,03,07,24,4.80
2012,12,03,07,25,6.40
2012,12,03,07,26,8.10
2012,12,03,07,27,9.60
2012,12,03,07,28,4.80
2012,12,03,07,29,8.10
2012,12,03,07,30,8.10
2012,12,03,07,31,8.10
2012,12,03,07,32,6.40
2012,12,03,07,33,9.60
2012,12,03,07,34,8.10
2012,12,03,07,35,9.60
2012,12,03,07,36,8.10
2012,12,03,07,37,4.80
2012,12,03,07,38,6.40
2012,12,03,07,39,11.30
2012,12,03,07,40,6.40
2012,12,03,07,41,8.10
2012,12,03,07,42,11.30
2012,12,03,07,43,8.10
2012,12,03,07,44,11.30
2012,12,03,07,45,16.10
2012,12,03,07,46,11.30
2012,12,03,07,47,16.10
2012,12,03,07,48,14.50
2012,12,03,07,49,8.10
2012,12,03,07,50,11.30
2012,12,03,07,51,14.50
2012,12,03,07,52,9.60
2012,12,03,07,53,17.70
2012,12,03,07,54,11.30
2012,12,03,07,55,9.60
2012,12,03,07,56,6.40
2012,12,03,07,57,8.10
2012,12,03,07,58,8.10
2012,12,03,07,59,16.10
2012,12,03,08,00,11.30
2012,12,03,08,01,11.30
2012,12,03,08,02,11.30
2012,12,03,08,03,9.60
2012,12,03,08,04,14.50
2012,12,03,08,05,16.10
2012,12,03,08,06,20.90
2012,12,03,08,07,19.30
2012,12,03,08,08,16.10
2012,12,03,08,09,11.30
2012,12,03,08,10,9.60
2012,12,03,08,11,8.10
2012,12,03,08,12,4.80
2012,12,03,08,13,4.80
2012,12,03,08,14,14.50
2012,12,03,08,15,16.10
2012,12,03,08,16,16.10
2012,12,03,08,17,16.10
2012,12,03,08,18,11.30
2012,12,03,08,19,9.60
2012,12,03,08,20,11.30
2012,12,03,08,21,14.50
2012,12,03,08,22,11.30
2012,12,03,08,23,8.10
2012,12,03,08,24,9.60
2012,12,03,08,25,6.40
2012,12,03,08,26,8.10
2012,12,03,08,27,9.60
2012,12,03,08,28,8.10
2012,12,03,08,29,8.10
2012,12,03,08,30,8.10
2012,12,03,08,31,16.10
2012,12,03,08,32,9.60
2012,12,03,08,33,9.60
2012,12,03,08,34,14.50
2012,12,03,08,35,17.70
2012,12,03,08,36,19.30
2012,12,03,08,37,24.20
2012,12,03,08,38,20.90
2012,12,03,08,39,17.70
2012,12,03,08,40,16.10
2012,12,03,08,41,24.20
2012,12,03,08,42,16.10
2012,12,03,08,43,16.10
2012,12,03,08,44,11.30
2012,12,03,08,45,11.30
2012,12,03,08,46,11.30
2012,12,03,08,47,4.80
2012,12,03,08,48,3.20
2012,12,03,08,49,3.20
2012,12,03,08,50,9.60
2012,12,03,08,51,8.10
2012,12,03,08,52,6.40
2012,12,03,08,53,4.80
2012,12,03,08,54,6.40
2012,12,03,08,55,6.40
2012,12,03,08,56,4.80
2012,12,03,08,57,3.20
2012,12,03,08,58,1.60
2012,12,03,08,59,6.40
2012,12,03,09,00,4.80
2012,12,03,09,01,3.20
2012,12,03,09,02,6.40
2012,12,03,09,03,11.30
2012,12,03,09,04,16.10
2012,12,03,09,05,11.30
2012,12,03,09,06,11.30
2012,12,03,09,07,14.50
2012,12,03,09,08,9.60
2012,12,03,09,09,9.60
2012,12,03,09,10,17.70
2012,12,03,09,11,11.30
2012,12,03,09,12,9.60
2012,12,03,09,13,9.60
2012,12,03,09,14,11.30
2012,12,03,09,15,19.30
2012,12,03,09,16,19.30
2012,12,03,09,17,22.50
2012,12,03,09,18,20.90
2012,12,03,09,19,20.90
2012,12,03,09,20,17.70
2012,12,03,09,21,17.70
2012,12,03,09,22,19.30
2012,12,03,09,23,17.70
2012,12,03,09,24,17.70
2012,12,03,09,25,19.30
2012,12,03,09,26,17.70
2012,12,03,09,27,19.30
2012,12,03,09,28,17.70
2012,12,03,09,29,19.30
2012,12,03,09,30,25.70
2012,12,03,09,31,20.90
2012,12,03,09,32,24.20
2012,12,03,09,33,22.50
2012,12,03,09,34,22.50
2012,12,03,09,35,17.70
2012,12,03,09,36,17.70
2012,12,03,09,37,20.90
2012,12,03,09,38,19.30
2012,12,03,09,39,17.70
2012,12,03,09,40,17.70
2012,12,03,09,41,17.70
2012,12,03,09,42,17.70
2012,12,03,09,43,20.90
2012,12,03,09,44,20.90
2012,12,03,09,45,19.30
2012,12,03,09,46,14.50
2012,12,03,09,47,24.20
2012,12,03,09,48,19.30
2012,12,03,09,49,19.30
2012,12,03,09,50,22.50
2012,12,03,09,51,24.20
2012,12,03,09,52,16.10
2012,12,03,09,53,19.30
2012,12,03,09,54,17.70
2012,12,03,09,55,17.70
2012,12,03,09,56,20.90
2012,12,03,09,57,27.40
2012,12,03,09,58,22.50
2012,12,03,09,59,20.90
2012,12,03,10,00,27.40
2012,12,03,10,01,22.50
2012,12,03,10,02,19.30
2012,12,03,10,03,20.90
2012,12,03,10,04,19.30
2012,12,03,10,05,19.30
2012,12,03,10,06,22.50
2012,12,03,10,07,19.30
2012,12,03,10,08,16.10
2012,12,03,10,09,22.50
2012,12,03,10,10,22.50
2012,12,03,10,11,24.20
2012,12,03,10,12,24.20
2012,12,03,10,13,22.50
2012,12,03,10,14,17.70
2012,12,03,10,15,17.70
2012,12,03,10,16,24.20
2012,12,03,10,17,19.30
2012,12,03,10,18,16.10
2012,12,03,10,19,16.10
2012,12,03,10,20,14.50
2012,12,03,10,21,12.90
2012,12,03,10,22,16.10
2012,12,03,10,23,12.90
2012,12,03,10,24,20.90
2012,12,03,10,25,19.30
2012,12,03,10,26,20.90
2012,12,03,10,27,19.30
2012,12,03,10,28,16.10
2012,12,03,10,29,20.90
2012,12,03,10,30,20.90
2012,12,03,10,31,22.50
2012,12,03,10,32,22.50
2012,12,03,10,33,22.50
2012,12,03,10,34,19.30
2012,12,03,10,35,17.70
2012,12,03,10,36,19.30
2012,12,03,10,37,17.70
2012,12,03,10,38,19.30
2012,12,03,10,39,17.70
2012,12,03,10,40,22.50
2012,12,03,10,41,19.30
2012,12,03,10,42,19.30
2012,12,03,10,43,19.30
2012,12,03,10,44,19.30
2012,12,03,10,45,24.20
2012,12,03,10,46,20.90
2012,12,03,10,47,19.30
2012,12,03,10,48,19.30
2012,12,03,10,49,16.10
2012,12,03,10,50,17.70
2012,12,03,10,51,17.70
2012,12,03,10,52,16.10
2012,12,03,10,53,16.10
2012,12,03,10,54,14.50
2012,12,03,10,55,19.30
2012,12,03,10,56,22.50
2012,12,03,10,57,22.50
2012,12,03,10,58,19.30
2012,12,03,10,59,20.90
2012,12,03,11,00,16.10
2012,12,03,11,01,17.70
2012,12,03,11,02,20.90
2012,12,03,11,03,20.90
2012,12,03,11,04,24.20
2012,12,03,11,05,19.30
2012,12,03,11,06,24.20
2012,12,03,11,07,20.90
2012,12,03,11,08,19.30
2012,12,03,11,09,20.90
2012,12,03,11,10,20.90
2012,12,03,11,11,19.30
2012,12,03,11,12,22.50
2012,12,03,11,13,22.50
2012,12,03,11,14,24.20
2012,12,03,11,15,22.50
2012,12,03,11,16,24.20
2012,12,03,11,17,22.50
2012,12,03,11,18,22.50
2012,12,03,11,19,22.50
2012,12,03,11,20,27.40
2012,12,03,11,21,22.50
2012,12,03,11,22,24.20
2012,12,03,11,23,29.00
2012,12,03,11,24,20.90
2012,12,03,11,25,27.40
2012,12,03,11,26,25.70
2012,12,03,11,27,27.40
2012,12,03,11,28,20.90
2012,12,03,11,29,24.20
2012,12,03,11,30,24.20
2012,12,03,11,31,19.30
2012,12,03,11,32,20.90
2012,12,03,11,33,19.30
2012,12,03,11,34,20.90
2012,12,03,11,35,24.20
2012,12,03,11,36,22.50
2012,12,03,11,37,19.30
2012,12,03,11,38,17.70
2012,12,03,11,39,24.20
2012,12,03,11,40,17.70
2012,12,03,11,41,20.90
2012,12,03,11,42,22.50
2012,12,03,11,43,24.20
2012,12,03,11,44,24.20
2012,12,03,11,45,20.90
2012,12,03,11,46,24.20
2012,12,03,11,47,20.90
2012,12,03,11,48,20.90
2012,12,03,11,49,19.30
2012,12,03,11,50,19.30
2012,12,03,11,51,19.30
2012,12,03,11,52,22.50
2012,12,03,11,53,20.90
2012,12,03,11,54,20.90
2012,12,03,11,55,20.90
2012,12,03,11,56,17.70
2012,12,03,11,57,22.50
2012,12,03,11,58,22.50
2012,12,03,11,59,19.30
2012,12,03,12,00,22.50
2012,12,03,12,01,22.50
2012,12,03,12,02,24.20
2012,12,03,12,03,20.90
2012,12,03,12,04,25.70
2012,12,03,12,05,20.90
2012,12,03,12,06,19.30
2012,12,03,12,07,14.50
2012,12,03,12,08,19.30
2012,12,03,12,09,19.30
2012,12,03,12,10,22.50
2012,12,03,12,11,20.90
2012,12,03,12,12,20.90
2012,12,03,12,13,17.70
2012,12,03,12,14,14.50
2012,12,03,12,15,20.90
2012,12,03,12,16,22.50
2012,12,03,12,17,20.90
2012,12,03,12,18,20.90
2012,12,03,12,19,20.90
2012,12,03,12,20,17.70
2012,12,03,12,21,17.70
2012,12,03,12,22,17.70
2012,12,03,12,23,20.90
2012,12,03,12,24,20.90
2012,12,03,12,25,20.90
2012,12,03,12,26,14.50
2012,12,03,12,27,17.70
2012,12,03,12,28,19.30
2012,12,03,12,29,17.70
2012,12,03,12,30,17.70
2012,12,03,12,31,19.30
2012,12,03,12,32,12.90
2012,12,03,12,33,17.70
2012,12,03,12,34,24.20
2012,12,03,12,35,19.30
2012,12,03,12,36,16.10
2012,12,03,12,37,12.90
2012,12,03,12,38,16.10
2012,12,03,12,39,16.10
2012,12,03,12,40,14.50
2012,12,03,12,41,11.30
2012,12,03,12,42,11.30
2012,12,03,12,43,9.60
2012,12,03,12,44,11.30
2012,12,03,12,45,14.50
2012,12,03,12,46,12.90
2012,12,03,12,47,11.30
2012,12,03,12,48,11.30
2012,12,03,12,49,14.50
2012,12,03,12,50,12.90
2012,12,03,12,51,14.50
2012,12,03,12,52,16.10
2012,12,03,12,53,16.10
2012,12,03,12,54,11.30
2012,12,03,12,55,9.60
2012,12,03,12,56,14.50
2012,12,03,12,57,17.70
2012,12,03,12,58,8.10
2012,12,03,12,59,8.10
2012,12,03,13,00,11.30
2012,12,03,13,01,12.90
2012,12,03,13,02,17.70
2012,12,03,13,03,12.90
2012,12,03,13,04,14.50
2012,12,03,13,05,16.10
2012,12,03,13,06,11.30
2012,12,03,13,07,12.90
2012,12,03,13,08,16.10
2012,12,03,13,09,19.30
2012,12,03,13,10,14.50
2012,12,03,13,11,17.70
2012,12,03,13,12,20.90
2012,12,03,13,13,24.20
2012,12,03,13,14,24.20
2012,12,03,13,15,22.50
2012,12,03,13,16,27.40
2012,12,03,13,17,24.20
2012,12,03,13,18,17.70
2012,12,03,13,19,17.70
2012,12,03,13,20,19.30
2012,12,03,13,21,17.70
2012,12,03,13,22,24.20
2012,12,03,13,23,19.30
2012,12,03,13,24,20.90
2012,12,03,13,25,24.20
2012,12,03,13,26,17.70
2012,12,03,13,27,19.30
2012,12,03,13,28,24.20
2012,12,03,13,29,20.90
2012,12,03,13,30,27.40
2012,12,03,13,31,24.20
2012,12,03,13,32,19.30
2012,12,03,13,33,19.30
2012,12,03,13,34,19.30
2012,12,03,13,35,20.90
2012,12,03,13,36,22.50
2012,12,03,13,37,19.30
2012,12,03,13,38,17.70
2012,12,03,13,39,20.90
2012,12,03,13,40,24.20
2012,12,03,13,41,19.30
2012,12,03,13,42,20.90
2012,12,03,13,43,22.50
2012,12,03,13,44,20.90
2012,12,03,13,45,25.70
2012,12,03,13,46,24.20
2012,12,03,13,47,22.50
2012,12,03,13,48,29.00
2012,12,03,13,49,24.20
2012,12,03,13,50,25.70
2012,12,03,13,51,27.40
2012,12,03,13,52,29.00
2012,12,03,13,53,27.40
2012,12,03,13,54,29.00
2012,12,03,13,55,24.20
2012,12,03,13,56,29.00
2012,12,03,13,57,29.00
2012,12,03,13,58,35.40
2012,12,03,13,59,33.80
2012,12,03,14,00,27.40
2012,12,03,14,01,30.60
2012,12,03,14,02,27.40
2012,12,03,14,03,24.20
2012,12,03,14,04,30.60
2012,12,03,14,05,24.20
2012,12,03,14,06,29.00
2012,12,03,14,07,27.40
2012,12,03,14,08,29.00
2012,12,03,14,09,25.70
2012,12,03,14,10,30.60
2012,12,03,14,11,27.40
2012,12,03,14,12,27.40
2012,12,03,14,13,24.20
2012,12,03,14,14,24.20
2012,12,03,14,15,24.20
2012,12,03,14,16,25.70
2012,12,03,14,17,25.70
2012,12,03,14,18,20.90
2012,12,03,14,19,24.20
2012,12,03,14,20,25.70
2012,12,03,14,21,25.70
2012,12,03,14,22,22.50
2012,12,03,14,23,27.40
2012,12,03,14,24,22.50
2012,12,03,14,25,27.40
2012,12,03,14,26,25.70
2012,12,03,14,27,25.70
2012,12,03,14,28,25.70
2012,12,03,14,29,24.20
2012,12,03,14,30,25.70
2012,12,03,14,31,19.30
2012,12,03,14,32,25.70
2012,12,03,14,33,20.90
2012,12,03,14,34,27.40
2012,12,03,14,35,25.70
2012,12,03,14,36,24.20
2012,12,03,14,37,25.70
2012,12,03,14,38,24.20
2012,12,03,14,39,27.40
2012,12,03,14,40,25.70
2012,12,03,14,41,25.70
2012,12,03,14,42,24.20
2012,12,03,14,43,27.40
2012,12,03,14,44,22.50
2012,12,03,14,45,20.90
2012,12,03,14,46,20.90
2012,12,03,14,47,25.70
2012,12,03,14,48,25.70
2012,12,03,14,49,24.20
2012,12,03,14,50,24.20
2012,12,03,14,51,22.50
2012,12,03,14,52,22.50
2012,12,03,14,53,19.30
2012,12,03,14,54,22.50
2012,12,03,14,55,24.20
2012,12,03,14,56,25.70
2012,12,03,14,57,22.50
2012,12,03,14,58,24.20
2012,12,03,14,59,27.40
2012,12,03,15,00,29.00
2012,12,03,15,01,22.50
2012,12,03,15,02,24.20
2012,12,03,15,03,22.50
2012,12,03,15,04,22.50
2012,12,03,15,05,22.50
2012,12,03,15,06,19.30
2012,12,03,15,07,22.50
2012,12,03,15,08,22.50
2012,12,03,15,09,24.20
2012,12,03,15,10,19.30
2012,12,03,15,11,29.00
2012,12,03,15,12,24.20
2012,12,03,15,13,27.40
2012,12,03,15,14,20.90
2012,12,03,15,15,27.40
2012,12,03,15,16,27.40
2012,12,03,15,17,29.00
2012,12,03,15,18,27.40
2012,12,03,15,19,27.40
2012,12,03,15,20,24.20
2012,12,03,15,21,24.20
2012,12,03,15,22,24.20
2012,12,03,15,23,22.50
2012,12,03,15,24,22.50
2012,12,03,15,25,22.50
2012,12,03,15,26,25.70
2012,12,03,15,27,27.40
2012,12,03,15,28,29.00
2012,12,03,15,29,22.50
2012,12,03,15,30,29.00
2012,12,03,15,31,20.90
2012,12,03,15,32,29.00
2012,12,03,15,33,29.00
2012,12,03,15,34,27.40
2012,12,03,15,35,22.50
2012,12,03,15,36,25.70
2012,12,03,15,37,32.20
2012,12,03,15,38,27.40
2012,12,03,15,39,29.00
2012,12,03,15,40,29.00
2012,12,03,15,41,29.00
2012,12,03,15,42,32.20
2012,12,03,15,43,30.60
2012,12,03,15,44,27.40
2012,12,03,15,45,35.40
2012,12,03,15,46,29.00
2012,12,03,15,47,33.80
2012,12,03,15,48,30.60
2012,12,03,15,49,32.20
2012,12,03,15,50,33.80
2012,12,03,15,51,33.80
2012,12,03,15,52,35.40
2012,12,03,15,53,27.40
2012,12,03,15,54,29.00
2012,12,03,15,55,35.40
2012,12,03,15,56,30.60
2012,12,03,15,57,32.20
2012,12,03,15,58,27.40
2012,12,03,15,59,27.40
2012,12,03,16,00,38.60
2012,12,03,16,01,37.00
2012,12,03,16,02,37.00
2012,12,03,16,03,33.80
2012,12,03,16,04,30.60
2012,12,03,16,05,33.80
2012,12,03,16,06,30.60
2012,12,03,16,07,33.80
2012,12,03,16,08,29.00
2012,12,03,16,09,30.60
2012,12,03,16,10,40.20
2012,12,03,16,11,27.40
2012,12,03,16,12,24.20
2012,12,03,16,13,35.40
2012,12,03,16,14,41.80
2012,12,03,16,15,33.80
2012,12,03,16,16,37.00
2012,12,03,16,17,37.00
2012,12,03,16,18,32.20
2012,12,03,16,19,32.20
2012,12,03,16,20,33.80
2012,12,03,16,21,33.80
2012,12,03,16,22,29.00
2012,12,03,16,23,27.40
2012,12,03,16,24,25.70
2012,12,03,16,25,24.20
2012,12,03,16,26,29.00
2012,12,03,16,27,32.20
2012,12,03,16,28,29.00
2012,12,03,16,29,24.20
2012,12,03,16,30,33.80
2012,12,03,16,31,27.40
2012,12,03,16,32,29.00
2012,12,03,16,33,30.60
2012,12,03,16,34,33.80
2012,12,03,16,35,27.40
2012,12,03,16,36,30.60
2012,12,03,16,37,25.70
2012,12,03,16,38,29.00
2012,12,03,16,39,27.40
2012,12,03,16,40,25.70
2012,12,03,16,41,32.20
2012,12,03,16,42,25.70
2012,12,03,16,43,25.70
2012,12,03,16,44,25.70
2012,12,03,16,45,30.60
2012,12,03,16,46,30.60
2012,12,03,16,47,22.50
2012,12,03,16,48,24.20
2012,12,03,16,49,24.20
2012,12,03,16,50,32.20
2012,12,03,16,51,24.20
2012,12,03,16,52,29.00
2012,12,03,16,53,29.00
2012,12,03,16,54,25.70
2012,12,03,16,55,22.50
2012,12,03,16,56,24.20
2012,12,03,16,57,27.40
2012,12,03,16,58,25.70
2012,12,03,16,59,24.20
2012,12,03,17,00,25.70
2012,12,03,17,01,24.20
2012,12,03,17,02,24.20
2012,12,03,17,03,27.40
2012,12,03,17,04,27.40
2012,12,03,17,05,22.50
2012,12,03,17,06,27.40
2012,12,03,17,07,25.70
2012,12,03,17,08,22.50
2012,12,03,17,09,20.90
2012,12,03,17,10,22.50
2012,12,03,17,11,22.50
2012,12,03,17,12,29.00
2012,12,03,17,13,25.70
2012,12,03,17,14,19.30
2012,12,03,17,15,29.00
2012,12,03,17,16,24.20
2012,12,03,17,17,24.20
2012,12,03,17,18,25.70
2012,12,03,17,19,32.20
2012,12,03,17,20,29.00
2012,12,03,17,21,24.20
2012,12,03,17,22,29.00
2012,12,03,17,23,24.20
2012,12,03,17,24,32.20
2012,12,03,17,25,30.60
2012,12,03,17,26,32.20
2012,12,03,17,27,22.50
2012,12,03,17,28,16.10
2012,12,03,17,29,22.50
2012,12,03,17,30,24.20
2012,12,03,17,31,24.20
2012,12,03,17,32,24.20
2012,12,03,17,33,37.00
2012,12,03,17,34,32.20
2012,12,03,17,35,27.40
2012,12,03,17,36,30.60
2012,12,03,17,37,32.20
2012,12,03,17,38,32.20
2012,12,03,17,39,29.00
2012,12,03,17,40,27.40
2012,12,03,17,41,25.70
2012,12,03,17,42,25.70
2012,12,03,17,43,30.60
2012,12,03,17,44,29.00
2012,12,03,17,45,32.20
2012,12,03,17,46,27.40
2012,12,03,17,47,30.60
2012,12,03,17,48,29.00
2012,12,03,17,49,25.70
2012,12,03,17,50,35.40
2012,12,03,17,51,35.40
2012,12,03,17,52,35.40
2012,12,03,17,53,24.20
2012,12,03,17,54,33.80
2012,12,03,17,55,30.60
2012,12,03,17,56,32.20
2012,12,03,17,57,29.00
2012,12,03,17,58,32.20